COSMOS 2491 DEB, 45127

Orbit data source: Space-Track

COSMOS 2491 DEB, 45127 is space debris in LEO originally from a launch on Wed, 25 Dec 2013 UTC launched from the Plesetsk Missile And Space Complex (PKMTR). Debris objects in space refer to the collection of defunct objects orbiting the Earth. Examples of debris include non-operational satellites, rocket bodies, and fragments generated from explosions, collisions, or faulty payload assembly.

Loading next visibility...
Identifier
45127, 2013-076Z
Orbit
LEO
Country
Flag of CISCIS
Related business
Manufacturer
TsNIIKhM
Mission
Spacecraft
Bus & Motor
Unknown
Mass
Unknown
Launch date (UTC)
2013-12-25 (12 years ago)
Launch vehicle
Unknown
Launch site
Plesetsk Missile And Space Complex (PKMTR)
Object type
Payload
Rocket body
Debris
Shape & HBR
Unknown shape, 0.1 m
Radar Cross Section
Small (<0.1 m²)

Expand to show TLE details & history
Last TLE update: 2 weeks ago

TLE from 2 weeks ago
0 COSMOS 2491 DEB
1 45127U 13076Z   26161.63460153  .00001342  00000-0  74266-2 0  9997
2 45127  82.4556 127.4370 0030423 190.5116 169.5343 12.62372045292422
Epoch: 2026-06-10T15:13Z
TLE epoch observation values (Epoch: 2026-06-10T15:13:49.572Z)
Latitude
0.00005°
Longitude
-0.00948°
Altitude
1,439.211 km
Speed
7.131 km/s
True Right ascension
08h 29m 44s
True Declination
0° 00' 00"
Sunlit
Object was in daylight at epoch
Visualization orbit readout
Latitude
Unknown
Longitude
Unknown
Altitude
Unknown
Speed
Unknown
Apparent Right ascension
Unknown
Apparent Declination
Unknown
Sunlit
N/A
Visualization observer readout
Local Sidereal Time
23:19:26
Azimuth
Unknown
Elevation
Unknown
Doppler factor
Unknown
Orbital elements
Apogee altitude
1,434.19 km
Perigee altitude
1,386.799 km
Semi-major axis
7,788.631 km
Eccentricity
0.00304
Inclination
82.4556°
RAAN
127.437°
Arg. of periapsis
190.5116°
True anomaly
169.59739°
Mean anomaly
169.5343°
Eccentric anomaly
169.56587°
Mean motion
3.15756 °/min
Orbital period
114.01 mins
BSTAR
0.0074266
Loading maneuver chart data...
Computing Atmospheric mass density...
Loading historical data...
Loading historical data...
Loading historical data...
Loading historical data...
Loading historical data...
Loading historical data...
Loading historical data...

Documentation

Showing up to 5 results
|